Location: Ariel
(45.9570°N, 122.5700°W)
Time: 14:08:57
(UTC-07:00)

NOAA 15 - Visible Passes

Search period start: 20 April 2019 00:00
Search period end: 30 April 2019 00:00
Orbit: 797 x 813 km, 98.8° (Epoch: 20 April)

Date Brightness Start Highest point End Pass type
(mag) Time Alt. Az. Time Alt. Az. Time Alt. Az.
21 Apr 7.4 20:55:59 10° SW 20:59:01 15° W 21:02:04 10° NW visible
22 Apr 7.0 20:29:24 10° SSW 20:33:41 25° W 20:38:00 10° NW visible
25 Apr 7.4 20:55:33 10° SW 20:58:37 16° W 21:01:43 10° NW visible
29 Apr 7.4 20:55:07 10° SW 20:58:13 16° W 21:01:21 10° NW visible
